| time (UTC) | temp F | wind direction | speed MPH | gust MPH | rain 1hr in | rain 24hr in | rain mn in | humidity % | barometer mb |
| 20260507081242 | 59 | 263 | 2.0 | 6.0 | 0.00 | 0.31 | 0.01 | 73 | 1014.9 |
| 20260507080741 | 59 | 250 | 2.0 | 6.0 | 0.00 | 0.31 | 0.01 | 73 | 1014.9 |
| 20260507080241 | 59 | 258 | 2.0 | 6.0 | 0.00 | 0.31 | 0.01 | 75 | 1014.9 |
| 20260507075735 | 59 | 211 | 3.0 | 11.0 | 0.00 | 0.31 | 0.01 | 75 | 1014.8 |
| 20260507075519 | 58 | 208 | 2.0 | 11.0 | 0.00 | 0.31 | 0.01 | 78 | 1014.8 |
| 20260507074734 | 58 | 218 | 1.0 | 4.0 | 0.00 | 0.31 | 0.01 | 78 | 1014.8 |
| 20260507074234 | 58 | 283 | 1.0 | 3.0 | 0.00 | 0.31 | 0.01 | 80 | 1014.8 |
| 20260507073736 | 58 | 230 | 2.0 | 6.0 | 0.00 | 0.31 | 0.01 | 82 | 1014.8 |
| 20260507073504 | 57 | 232 | 2.0 | 6.0 | 0.00 | 0.31 | 0.01 | 84 | 1014.7 |
| 20260507072735 | 56 | 210 | 1.0 | 3.0 | 0.00 | 0.31 | 0.01 | 86 | 1014.8 |
| 20260507072526 | 55 | 177 | 2.0 | 4.0 | 0.00 | 0.31 | 0.01 | 86 | 1014.7 |
| 20260507072246 | 55 | 178 | 2.0 | 4.0 | 0.00 | 0.31 | 0.01 | 87 | 1014.7 |
| 20260507071236 | 55 | 208 | 2.0 | 4.0 | 0.00 | 0.31 | 0.01 | 87 | 1014.7 |
| 20260507070734 | 54 | 208 | 2.0 | 4.0 | 0.00 | 0.31 | 0.01 | 89 | 1014.7 |
| 20260507070235 | 54 | 208 | 2.0 | 4.0 | 0.00 | 0.31 | 0.01 | 88 | 1014.7 |
| 20260507070010 | 53 | 208 | 2.0 | 4.0 | 0.00 | 0.31 | 0.01 | 89 | 1014.6 |
| 20260507065445 | 53 | 208 | 1.0 | 3.0 | 0.00 | 0.31 | 0.01 | 89 | 1014.7 |
| 20260507064714 | 53 | 208 | 2.0 | 4.0 | 0.00 | 0.31 | 0.01 | 90 | 1014.6 |
| 20260507064209 | 53 | 208 | 2.0 | 4.0 | 0.00 | 0.31 | 0.01 | 90 | 1014.6 |
| 20260507063706 | 53 | 208 | 2.0 | 4.0 | 0.00 | 0.31 | 0.01 | 90 | 1014.7 |
| 20260507063206 | 53 | 208 | 2.0 | 4.0 | 0.00 | 0.31 | 0.01 | 90 | 1014.6 |
| 20260507062707 | 53 | 208 | 2.0 | 4.0 | 0.00 | 0.31 | 0.01 | 91 | 1014.7 |
| 20260507062208 | 53 | 179 | 2.0 | 3.0 | 0.01 | 0.31 | 0.01 | 92 | 1014.6 |
| 20260507061707 | 52 | 179 | 2.0 | 3.0 | 0.01 | 0.31 | 0.01 | 92 | 1014.6 |
| 20260507061207 | 52 | 179 | 2.0 | 4.0 | 0.01 | 0.31 | 0.01 | 92 | 1014.6 |
| 20260507060707 | 52 | 178 | 2.0 | 4.0 | 0.01 | 0.31 | 0.01 | 92 | 1014.6 |
| 20260507060207 | 52 | 191 | 2.0 | 3.0 | 0.01 | 0.31 | 0.01 | 92 | 1014.5 |
| 20260507055703 | 52 | 184 | 1.0 | 3.0 | 0.01 | 0.31 | 0.01 | 92 | 1014.5 |
| 20260507055426 | 52 | 184 | 1.0 | 5.0 | 0.01 | 0.31 | 0.01 | 92 | 1014.4 |
| 20260507054654 | 52 | 177 | 1.0 | 5.0 | 0.01 | 0.31 | 0.01 | 92 | 1014.2 |
| 20260507054151 | 51 | 200 | 1.0 | 3.0 | 0.01 | 0.31 | 0.01 | 92 | 1014.3 |
| 20260507053648 | 51 | 200 | 1.0 | 3.0 | 0.01 | 0.31 | 0.01 | 92 | 1014.2 |
| 20260507053147 | 51 | 200 | 1.0 | 4.0 | 0.01 | 0.31 | 0.01 | 92 | 1014.3 |
| 20260507052649 | 51 | 200 | 1.0 | 4.0 | 0.01 | 0.31 | 0.01 | 92 | 1014.1 |
| 20260507052145 | 51 | 200 | 2.0 | 3.0 | 0.00 | 0.30 | 0.00 | 92 | 1014.1 |
| 20260507051643 | 51 | 200 | 2.0 | 5.0 | 0.00 | 0.30 | 0.00 | 92 | 1014.1 |
| 20260507051141 | 51 | 201 | 1.0 | 5.0 | 0.00 | 0.30 | 0.00 | 92 | 1014.0 |
| 20260507050652 | 51 | 189 | 0.0 | 2.0 | 0.00 | 0.30 | 0.00 | 92 | 1014.0 |
| 20260507050111 | 51 | 189 | 0.0 | 1.0 | 0.00 | 0.30 | 0.00 | 92 | 1013.0 |
| 20260507045610 | 51 | 189 | 0.0 | 1.0 | 0.00 | 0.30 | 0.00 | 92 | 1013.9 |
| 20260507045108 | 51 | 189 | 0.0 | 1.0 | 0.00 | 0.30 | 0.00 | 92 | 1013.8 |
| 20260507044608 | 51 | 189 | 0.0 | 2.0 | 0.00 | 0.30 | 0.00 | 92 | 1013.5 |
| 20260507044108 | 51 | 189 | 1.0 | 2.0 | 0.00 | 0.30 | 0.00 | 92 | 1013.4 |
| 20260507043607 | 51 | 189 | 1.0 | 3.0 | 0.00 | 0.30 | 0.00 | 92 | 1013.4 |
| 20260507043106 | 50 | 189 | 1.0 | 3.0 | 0.00 | 0.30 | 0.00 | 92 | 1013.4 |
| 20260507042606 | 50 | 189 | 2.0 | 3.0 | 0.00 | 0.30 | 0.00 | 92 | 1013.3 |
| 20260507042340 | 50 | 189 | 2.0 | 3.0 | 0.00 | 0.30 | 0.00 | 92 | 1013.3 |
| 20260507041559 | 50 | 189 | 2.0 | 3.0 | 0.00 | 0.30 | 0.00 | 92 | 1013.3 |
| 20260507041333 | 50 | 189 | 1.0 | 2.0 | 0.00 | 0.30 | 0.00 | 92 | 1013.2 |
| 20260507040554 | 50 | 189 | 1.0 | 2.0 | 0.00 | 0.30 | 0.00 | 92 | 1013.2 |
| 20260507040052 | 50 | 189 | 1.0 | 3.0 | 0.00 | 0.30 | 0.00 | 92 | 1013.1 |
| 20260507035537 | 50 | 189 | 1.0 | 3.0 | 0.00 | 0.30 | 0.00 | 92 | 1013.1 |
| 20260507035009 | 50 | 189 | 2.0 | 3.0 | 0.00 | 0.30 | 0.00 | 92 | 1013.1 |
| 20260507034509 | 50 | 189 | 2.0 | 3.0 | 0.00 | 0.30 | 0.00 | 92 | 1013.0 |
| 20260507034005 | 50 | 189 | 1.0 | 3.0 | 0.00 | 0.30 | 0.00 | 92 | 1013.0 |
| 20260507033457 | 50 | 189 | 2.0 | 3.0 | 0.00 | 0.30 | 0.00 | 92 | 1012.9 |
| 20260507032942 | 50 | 189 | 2.0 | 3.0 | 0.00 | 0.30 | 0.00 | 92 | 1012.9 |
| 20260507032717 | 50 | 189 | 2.0 | 3.0 | 0.00 | 0.30 | 0.00 | 92 | 1012.9 |
| 20260507031940 | 50 | 189 | 1.0 | 2.0 | 0.00 | 0.30 | 0.00 | 92 | 1012.8 |
| 20260507031455 | 50 | 189 | 1.0 | 3.0 | 0.00 | 0.30 | 0.00 | 92 | 1012.8 |
| 20260507031449 | 50 | 189 | 2.0 | 3.0 | 0.00 | 0.30 | 0.00 | 92 | 1012.8 |
| 20260507030436 | 50 | 189 | 1.0 | 3.0 | 0.00 | 0.30 | 0.00 | 92 | 1012.8 |
| 20260507025938 | 50 | 189 | 1.0 | 3.0 | 0.00 | 0.30 | 0.00 | 91 | 1012.8 |
| 20260507025706 | 50 | 189 | 0.0 | 0.0 | 0.00 | 0.30 | 0.00 | 91 | 1012.7 |
| 20260507024936 | 50 | 189 | 0.0 | 0.0 | 0.00 | 0.30 | 0.00 | 91 | 1012.7 |
| 20260507024435 | 50 | 189 | 0.0 | 0.0 | 0.00 | 0.30 | 0.00 | 91 | 1012.6 |
| 20260507023937 | 50 | 189 | 0.0 | 0.0 | 0.00 | 0.30 | 0.00 | 91 | 1012.7 |
| 20260507023434 | 50 | 189 | 0.0 | 0.0 | 0.00 | 0.30 | 0.00 | 91 | 1012.7 |
| 20260507022935 | 50 | 189 | 0.0 | 2.0 | 0.00 | 0.30 | 0.00 | 91 | 1012.7 |
| 20260507022436 | 50 | 189 | 1.0 | 3.0 | 0.00 | 0.30 | 0.00 | 91 | 1012.8 |
| 20260507021935 | 50 | 189 | 1.0 | 3.0 | 0.00 | 0.30 | 0.00 | 91 | 1012.7 |
| 20260507021437 | 50 | 196 | 1.0 | 2.0 | 0.00 | 0.30 | 0.00 | 91 | 1012.7 |
| 20260507020908 | 50 | 196 | 1.0 | 2.0 | 0.00 | 0.30 | 0.00 | 91 | 1012.7 |
| 20260507020636 | 50 | 196 | 2.0 | 3.0 | 0.00 | 0.30 | 0.00 | 91 | 1012.7 |
| 20260507020152 | 50 | 196 | 2.0 | 3.0 | 0.00 | 0.30 | 0.00 | 91 | 1012.7 |
| 20260507015407 | 50 | 196 | 2.0 | 3.0 | 0.00 | 0.30 | 0.00 | 91 | 1012.6 |
| 20260507014906 | 50 | 196 | 2.0 | 4.0 | 0.00 | 0.30 | 0.00 | 92 | 1012.6 |
| 20260507014359 | 50 | 196 | 2.0 | 4.0 | 0.00 | 0.30 | 0.00 | 92 | 1012.6 |
| 20260507014137 | 50 | 176 | 2.0 | 6.0 | 0.00 | 0.30 | 0.00 | 92 | 1012.5 |
| 20260507013626 | 50 | 210 | 3.0 | 6.0 | 0.00 | 0.30 | 0.00 | 92 | 1012.6 |
| 20260507013622 | 50 | 179 | 3.0 | 6.0 | 0.00 | 0.30 | 0.00 | 92 | 1012.7 |
| 20260507012353 | 50 | 199 | 2.0 | 5.0 | 0.00 | 0.30 | 0.00 | 91 | 1012.6 |
| 20260507011911 | 50 | 174 | 1.0 | 3.0 | 0.00 | 0.30 | 0.00 | 91 | 1012.5 |
| 20260507011902 | 50 | 174 | 1.0 | 5.0 | 0.00 | 0.30 | 0.00 | 91 | 1012.5 |
| 20260507010844 | 50 | 173 | 2.0 | 3.0 | 0.00 | 0.30 | 0.00 | 91 | 1012.5 |
| 20260507010345 | 50 | 174 | 2.0 | 5.0 | 0.00 | 0.30 | 0.00 | 91 | 1012.4 |
| 20260507005842 | 50 | 173 | 2.0 | 5.0 | 0.00 | 0.30 | 0.00 | 91 | 1012.4 |
| 20260507005616 | 50 | 183 | 1.0 | 4.0 | 0.00 | 0.30 | 0.00 | 91 | 1012.3 |
| 20260507004840 | 50 | 210 | 2.0 | 3.0 | 0.00 | 0.30 | 0.00 | 91 | 1012.2 |
| 20260507004336 | 50 | 210 | 2.0 | 3.0 | 0.00 | 0.30 | 0.00 | 90 | 1011.3 |
| 20260507003844 | 50 | 210 | 2.0 | 3.0 | 0.00 | 0.30 | 0.00 | 90 | 1012.1 |
| 20260507003840 | 50 | 210 | 2.0 | 3.0 | 0.00 | 0.30 | 0.00 | 90 | 1012.1 |
| 20260507002840 | 51 | 210 | 2.0 | 3.0 | 0.00 | 0.30 | 0.00 | 90 | 1012.0 |
| 20260507002337 | 51 | 210 | 2.0 | 3.0 | 0.00 | 0.30 | 0.00 | 90 | 1012.1 |
| 20260507001827 | 51 | 210 | 2.0 | 4.0 | 0.00 | 0.30 | 0.00 | 90 | 1012.1 |
| 20260507001326 | 51 | 210 | 2.0 | 4.0 | 0.00 | 0.30 | 0.00 | 90 | 1012.2 |
| 20260507000826 | 51 | 210 | 3.0 | 4.0 | 0.00 | 0.30 | 0.00 | 90 | 1012.2 |
| 20260507000328 | 51 | 210 | 3.0 | 4.0 | 0.00 | 0.30 | 0.00 | 89 | 1012.3 |
| 20260506235824 | 51 | 210 | 3.0 | 4.0 | 0.00 | 0.30 | 0.00 | 89 | 1012.2 |
| 20260506235316 | 51 | 210 | 2.0 | 4.0 | 0.00 | 0.30 | 0.00 | 89 | 1012.2 |
| 20260506235048 | 52 | 210 | 2.0 | 4.0 | 0.00 | 0.30 | 0.00 | 89 | 1012.3 |
| 20260506234614 | 52 | 210 | 3.0 | 5.0 | 0.00 | 0.30 | 0.00 | 89 | 1012.1 |
| 20260506233816 | 52 | 212 | 3.0 | 5.0 | 0.00 | 0.30 | 0.00 | 88 | 1012.1 |
| 20260506233312 | 52 | 212 | 3.0 | 4.0 | 0.00 | 0.30 | 0.00 | 88 | 1012.0 |
| 20260506232813 | 52 | 212 | 3.0 | 4.0 | 0.00 | 0.30 | 0.00 | 88 | 1012.0 |
| 20260506232309 | 52 | 212 | 3.0 | 4.0 | 0.00 | 0.30 | 0.00 | 88 | 1011.9 |
| 20260506232046 | 52 | 212 | 3.0 | 4.0 | 0.00 | 0.30 | 0.00 | 88 | 1011.8 |
| 20260506231352 | 52 | 210 | 3.0 | 5.0 | 0.00 | 0.30 | 0.00 | 88 | 1011.8 |
| 20260506231342 | 52 | 212 | 3.0 | 4.0 | 0.00 | 0.30 | 0.00 | 88 | 1011.8 |
| 20260506230311 | 52 | 205 | 3.0 | 5.0 | 0.00 | 0.30 | 0.00 | 88 | 1011.8 |
| 20260506225755 | 53 | 213 | 3.0 | 5.0 | 0.00 | 0.30 | 0.00 | 88 | 1011.8 |
| 20260506225256 | 53 | 210 | 3.0 | 5.0 | 0.00 | 0.30 | 0.00 | 88 | 1011.8 |
| 20260506224750 | 53 | 210 | 3.0 | 5.0 | 0.00 | 0.30 | 0.00 | 88 | 1011.7 |
| 20260506224251 | 53 | 199 | 3.0 | 6.0 | 0.00 | 0.30 | 0.00 | 88 | 1011.8 |
| 20260506223748 | 53 | 193 | 3.0 | 6.0 | 0.00 | 0.30 | 0.00 | 88 | 1011.7 |
| 20260506223242 | 53 | 213 | 3.0 | 5.0 | 0.00 | 0.31 | 0.00 | 88 | 1011.6 |
| 20260506222742 | 53 | 211 | 3.0 | 5.0 | 0.00 | 0.31 | 0.00 | 89 | 1011.6 |
| 20260506222234 | 53 | 206 | 2.0 | 4.0 | 0.00 | 0.31 | 0.00 | 89 | 1011.5 |
| 20260506221735 | 53 | 204 | 1.0 | 4.0 | 0.00 | 0.31 | 0.00 | 89 | 1011.5 |
| 20260506221509 | 54 | 210 | 0.0 | 0.0 | 0.00 | 0.31 | 0.00 | 89 | 1011.5 |
| 20260506220953 | 54 | 210 | 0.0 | 0.0 | 0.00 | 0.31 | 0.00 | 89 | 1011.5 |
| 20260506220224 | 54 | 210 | 0.0 | 0.0 | 0.00 | 0.31 | 0.00 | 89 | 1011.4 |
| 20260506215716 | 54 | 210 | 0.0 | 0.0 | 0.00 | 0.31 | 0.31 | 89 | 1011.3 |
| 20260506215215 | 54 | 210 | 0.0 | 1.0 | 0.00 | 0.31 | 0.31 | 89 | 1011.3 |
| 20260506214709 | 54 | 210 | 0.0 | 2.0 | 0.01 | 0.31 | 0.31 | 89 | 1011.2 |
| 20260506214209 | 54 | 210 | 1.0 | 4.0 | 0.01 | 0.31 | 0.31 | 89 | 1011.2 |
| 20260506213710 | 54 | 210 | 1.0 | 4.0 | 0.01 | 0.31 | 0.31 | 89 | 1011.1 |
| 20260506213209 | 54 | 210 | 1.0 | 3.0 | 0.02 | 0.31 | 0.31 | 89 | 1011.1 |
| 20260506212701 | 54 | 210 | 1.0 | 3.0 | 0.02 | 0.31 | 0.31 | 89 | 1011.0 |
| 20260506212159 | 54 | 210 | 1.0 | 5.0 | 0.02 | 0.31 | 0.31 | 89 | 1010.9 |
| 20260506211650 | 54 | 205 | 1.0 | 5.0 | 0.02 | 0.31 | 0.31 | 88 | 1010.8 |
| 20260506211151 | 54 | 208 | 1.0 | 5.0 | 0.02 | 0.31 | 0.31 | 88 | 1010.0 |
| 20260506210643 | 54 | 203 | 1.0 | 4.0 | 0.02 | 0.31 | 0.31 | 88 | 1010.6 |
| 20260506210139 | 54 | 206 | 1.0 | 6.0 | 0.02 | 0.31 | 0.31 | 88 | 1010.7 |
| 20260506205637 | 55 | 206 | 1.0 | 6.0 | 0.02 | 0.31 | 0.31 | 89 | 1010.6 |
| 20260506205137 | 55 | 220 | 1.0 | 5.0 | 0.02 | 0.31 | 0.30 | 89 | 1010.6 |
| 20260506204638 | 55 | 190 | 2.0 | 8.0 | 0.01 | 0.30 | 0.30 | 89 | 1010.5 |
| 20260506204136 | 56 | 202 | 2.0 | 8.0 | 0.01 | 0.30 | 0.30 | 89 | 1010.5 |
| 20260506203637 | 56 | 218 | 1.0 | 5.0 | 0.01 | 0.30 | 0.30 | 89 | 1010.3 |
| 20260506203351 | 56 | 184 | 1.0 | 5.0 | 0.00 | 0.29 | 0.29 | 89 | 1010.3 |
| 20260506202611 | 56 | 244 | 1.0 | 5.0 | 0.00 | 0.29 | 0.29 | 90 | 1010.2 |
| 20260506202109 | 56 | 200 | 1.0 | 4.0 | 0.00 | 0.29 | 0.29 | 90 | 1010.1 |
| 20260506201608 | 56 | 200 | 1.0 | 4.0 | 0.00 | 0.29 | 0.29 | 90 | 1010.2 |
| 20260506201046 | 56 | 197 | 1.0 | 5.0 | 0.00 | 0.29 | 0.29 | 90 | 1010.0 |
| 20260506200548 | 56 | 237 | 1.0 | 5.0 | 0.00 | 0.29 | 0.29 | 90 | 1009.9 |
| 20260506200318 | 56 | 212 | 0.0 | 3.0 | 0.00 | 0.29 | 0.29 | 90 | 1009.9 |
| 20260506195549 | 56 | 217 | 1.0 | 3.0 | 0.00 | 0.29 | 0.29 | 90 | 1009.9 |
| 20260506195045 | 56 | 217 | 2.0 | 3.0 | 0.00 | 0.29 | 0.29 | 90 | 1009.8 |
| 20260506194536 | 56 | 201 | 2.0 | 4.0 | 0.00 | 0.29 | 0.29 | 90 | 1009.8 |
| 20260506194053 | 56 | 208 | 1.0 | 4.0 | 0.00 | 0.29 | 0.29 | 90 | 1009.6 |
| 20260506193537 | 56 | 208 | 2.0 | 4.0 | 0.00 | 0.29 | 0.29 | 90 | 1009.7 |
| 20260506193036 | 56 | 208 | 2.0 | 6.0 | 0.00 | 0.29 | 0.29 | 90 | 1009.6 |
| 20260506192800 | 56 | 208 | 2.0 | 7.0 | 0.00 | 0.29 | 0.29 | 90 | 1009.4 |
| 20260506192301 | 56 | 212 | 3.0 | 7.0 | 0.00 | 0.29 | 0.29 | 90 | 1009.4 |
| 20260506191534 | 56 | 214 | 2.0 | 6.0 | 0.00 | 0.29 | 0.29 | 90 | 1009.3 |
| 20260506191056 | 57 | 89 | 0.0 | 0.0 | 0.00 | 0.29 | 0.29 | 90 | 1008.3 |
| 20260506191046 | 57 | 164 | 0.0 | 4.0 | 0.00 | 0.29 | 0.29 | 90 | 1008.7 |
| 20260506190019 | 57 | 88 | 0.0 | 0.0 | 0.00 | 0.30 | 0.29 | 90 | 1008.3 |
| 20260506185744 | 57 | 31 | 0.0 | 0.0 | 0.00 | 0.30 | 0.29 | 90 | 1008.1 |
| 20260506185009 | 57 | 31 | 0.0 | 0.0 | 0.00 | 0.30 | 0.29 | 89 | 1007.5 |
| 20260506184508 | 57 | 24 | 0.0 | 0.0 | 0.00 | 0.30 | 0.29 | 89 | 1007.9 |
| 20260506184235 | 57 | 24 | 0.0 | 0.0 | 0.00 | 0.30 | 0.29 | 89 | 1007.8 |
| 20260506183511 | 57 | 24 | 1.0 | 4.0 | 0.00 | 0.30 | 0.29 | 89 | 1007.5 |
| 20260506183008 | 57 | 23 | 2.0 | 6.0 | 0.01 | 0.30 | 0.29 | 89 | 1007.1 |
| 20260506182454 | 57 | 359 | 3.0 | 9.0 | 0.01 | 0.31 | 0.29 | 89 | 1006.9 |
| 20260506181954 | 57 | 347 | 4.0 | 9.0 | 0.02 | 0.31 | 0.29 | 89 | 1006.7 |
| 20260506181452 | 57 | 39 | 6.0 | 12.0 | 0.02 | 0.31 | 0.29 | 89 | 1006.6 |
| 20260506180952 | 58 | 343 | 5.0 | 13.0 | 0.03 | 0.31 | 0.29 | 89 | 1006.6 |
| 20260506180451 | 58 | 359 | 3.0 | 13.0 | 0.05 | 0.31 | 0.29 | 90 | 1006.6 |
| 20260506175952 | 58 | 312 | 2.0 | 7.0 | 0.08 | 0.31 | 0.29 | 89 | 1006.4 |
| 20260506175450 | 58 | 4 | 2.0 | 7.0 | 0.24 | 0.31 | 0.29 | 89 | 1006.3 |
| 20260506174949 | 58 | 35 | 2.0 | 8.0 | 0.28 | 0.31 | 0.29 | 89 | 1006.4 |
| 20260506174721 | 58 | 323 | 2.0 | 9.0 | 0.28 | 0.31 | 0.29 | 88 | 1006.4 |
| 20260506173948 | 58 | 304 | 4.0 | 14.0 | 0.28 | 0.31 | 0.29 | 88 | 1006.5 |
| 20260506173448 | 58 | 320 | 5.0 | 14.0 | 0.28 | 0.31 | 0.29 | 87 | 1006.5 |
| 20260506172947 | 58 | 317 | 5.0 | 14.0 | 0.28 | 0.31 | 0.28 | 87 | 1006.4 |
| 20260506172447 | 59 | 330 | 5.0 | 14.0 | 0.28 | 0.31 | 0.28 | 85 | 1006.3 |
| 20260506171944 | 59 | 308 | 5.0 | 11.0 | 0.27 | 0.30 | 0.28 | 84 | 1006.0 |
| 20260506171444 | 59 | 18 | 4.0 | 11.0 | 0.26 | 0.29 | 0.27 | 82 | 1005.9 |
| 20260506170945 | 60 | 330 | 5.0 | 15.0 | 0.25 | 0.28 | 0.26 | 81 | 1005.7 |
| 20260506170744 | 61 | 311 | 10.0 | 25.0 | 0.24 | 0.27 | 0.24 | 78 | 1005.7 |
| 20260506170213 | 62 | 313 | 14.0 | 25.0 | 0.20 | 0.24 | 0.20 | 75 | 1005.5 |
| 20260506165443 | 65 | 320 | 15.0 | 31.0 | 0.04 | 0.07 | 0.03 | 67 | 1004.9 |
| 20260506164942 | 68 | 308 | 13.0 | 31.0 | 0.00 | 0.03 | 0.01 | 55 | 1004.1 |
| 20260506164442 | 71 | 321 | 8.0 | 28.0 | 0.00 | 0.03 | 0.01 | 49 | 1003.5 |
| 20260506163940 | 73 | 253 | 3.0 | 11.0 | 0.00 | 0.03 | 0.01 | 41 | 1003.5 |
| 20260506163440 | 74 | 305 | 1.0 | 3.0 | 0.00 | 0.03 | 0.01 | 39 | 1002.7 |
| 20260506163215 | 74 | 4 | 0.0 | 3.0 | 0.00 | 0.03 | 0.01 | 39 | 1002.6 |
| 20260506163209 | 74 | 63 | 0.0 | 3.0 | 0.00 | 0.03 | 0.01 | 40 | 1002.4 |
| 20260506161935 | 74 | 45 | 0.0 | 3.0 | 0.00 | 0.03 | 0.01 | 38 | 1002.5 |
| 20260506161436 | 75 | 75 | 0.0 | 3.0 | 0.00 | 0.03 | 0.01 | 40 | 1003.0 |
| 20260506161201 | 75 | 75 | 1.0 | 3.0 | 0.00 | 0.03 | 0.01 | 38 | 1003.0 |
| 20260506160411 | 75 | 77 | 0.0 | 3.0 | 0.00 | 0.03 | 0.01 | 38 | 1003.3 |
| 20260506155910 | 76 | 56 | 0.0 | 2.0 | 0.00 | 0.03 | 0.01 | 39 | 1003.4 |
| 20260506155348 | 76 | 125 | 0.0 | 1.0 | 0.00 | 0.03 | 0.01 | 39 | 1003.5 |
| 20260506154848 | 76 | 81 | 0.0 | 1.0 | 0.00 | 0.03 | 0.01 | 38 | 1003.7 |
| 20260506154607 | 76 | 81 | 0.0 | 3.0 | 0.00 | 0.03 | 0.01 | 37 | 1003.6 |
| 20260506153809 | 77 | 81 | 0.0 | 3.0 | 0.00 | 0.03 | 0.01 | 36 | 1003.6 |
| 20260506153308 | 77 | 42 | 0.0 | 2.0 | 0.00 | 0.03 | 0.01 | 37 | 1003.6 |
| 20260506153041 | 77 | 111 | 1.0 | 3.0 | 0.00 | 0.03 | 0.01 | 37 | 1003.7 |
| 20260506152308 | 77 | 4 | 1.0 | 5.0 | 0.00 | 0.03 | 0.01 | 37 | 1003.6 |
| 20260506152029 | 78 | 154 | 1.0 | 5.0 | 0.00 | 0.03 | 0.01 | 37 | 1003.7 |
| 20260506151258 | 78 | 168 | 1.0 | 3.0 | 0.00 | 0.03 | 0.01 | 36 | 1004.0 |
| 20260506150739 | 78 | 56 | 1.0 | 3.0 | 0.00 | 0.03 | 0.01 | 37 | 1003.8 |
| 20260506150239 | 78 | 133 | 1.0 | 3.0 | 0.00 | 0.03 | 0.01 | 37 | 1004.0 |
| 20260506145739 | 78 | 50 | 2.0 | 5.0 | 0.00 | 0.03 | 0.01 | 37 | 1004.2 |
| 20260506145237 | 78 | 21 | 2.0 | 5.0 | 0.00 | 0.03 | 0.01 | 36 | 1004.3 |
| 20260506144736 | 78 | 143 | 1.0 | 5.0 | 0.00 | 0.03 | 0.01 | 34 | 1004.5 |
| 20260506144237 | 79 | 179 | 1.0 | 5.0 | 0.00 | 0.03 | 0.01 | 34 | 1004.5 |
| 20260506143736 | 79 | 161 | 1.0 | 3.0 | 0.00 | 0.03 | 0.01 | 36 | 1004.6 |
| 20260506143238 | 79 | 111 | 1.0 | 4.0 | 0.00 | 0.03 | 0.01 | 35 | 1004.6 |
| 20260506142736 | 79 | 62 | 2.0 | 5.0 | 0.00 | 0.03 | 0.01 | 35 | 1004.6 |
| 20260506142236 | 79 | 64 | 2.0 | 5.0 | 0.00 | 0.03 | 0.01 | 36 | 1004.6 |
| 20260506141715 | 80 | 143 | 1.0 | 4.0 | 0.00 | 0.03 | 0.01 | 36 | 1004.6 |
| 20260506141214 | 79 | 156 | 2.0 | 6.0 | 0.00 | 0.03 | 0.01 | 36 | 1004.9 |
| 20260506140711 | 80 | 68 | 3.0 | 6.0 | 0.00 | 0.03 | 0.01 | 36 | 1004.9 |
| 20260506140210 | 81 | 197 | 3.0 | 6.0 | 0.00 | 0.03 | 0.01 | 35 | 1006.0 |
| 20260506135638 | 81 | 197 | 2.0 | 7.0 | 0.00 | 0.03 | 0.01 | 34 | 1005.1 |
| 20260506135141 | 81 | 141 | 2.0 | 6.0 | 0.00 | 0.03 | 0.01 | 34 | 1005.1 |
| 20260506134638 | 81 | 170 | 2.0 | 6.0 | 0.00 | 0.03 | 0.01 | 34 | 1005.2 |
| 20260506134135 | 82 | 58 | 1.0 | 5.0 | 0.00 | 0.03 | 0.01 | 33 | 1005.2 |
| 20260506133636 | 81 | 183 | 1.0 | 5.0 | 0.00 | 0.03 | 0.01 | 35 | 1005.3 |
| 20260506133113 | 81 | 197 | 1.0 | 6.0 | 0.00 | 0.03 | 0.01 | 36 | 1005.3 |
| 20260506132612 | 80 | 39 | 2.0 | 8.0 | 0.00 | 0.03 | 0.01 | 35 | 1005.3 |
| 20260506132109 | 80 | 68 | 3.0 | 8.0 | 0.00 | 0.03 | 0.01 | 34 | 1005.5 |
| 20260506131838 | 80 | 222 | 3.0 | 6.0 | 0.00 | 0.03 | 0.01 | 35 | 1005.5 |
| 20260506131108 | 81 | 185 | 2.0 | 6.0 | 0.00 | 0.03 | 0.01 | 33 | 1005.6 |
| 20260506130608 | 82 | 183 | 1.0 | 5.0 | 0.00 | 0.03 | 0.01 | 35 | 1005.7 |
| 20260506130108 | 82 | 199 | 2.0 | 5.0 | 0.00 | 0.03 | 0.01 | 36 | 1005.7 |
| 20260506125607 | 82 | 152 | 2.0 | 7.0 | 0.00 | 0.03 | 0.01 | 36 | 1005.8 |
| 20260506125337 | 81 | 23 | 1.0 | 7.0 | 0.00 | 0.03 | 0.01 | 38 | 1005.8 |
| 20260506124606 | 81 | 127 | 2.0 | 11.0 | 0.00 | 0.03 | 0.01 | 38 | 1005.9 |
| 20260506124103 | 81 | 201 | 2.0 | 11.0 | 0.00 | 0.03 | 0.01 | 38 | 1006.0 |
| 20260506123602 | 82 | 170 | 2.0 | 7.0 | 0.00 | 0.03 | 0.01 | 38 | 1005.8 |
| 20260506123053 | 81 | 114 | 2.0 | 6.0 | 0.00 | 0.03 | 0.01 | 39 | 1005.9 |
| 20260506122553 | 81 | 165 | 2.0 | 7.0 | 0.00 | 0.03 | 0.01 | 42 | 1006.0 |
| 20260506122331 | 80 | 116 | 2.0 | 7.0 | 0.00 | 0.03 | 0.01 | 42 | 1006.1 |
| 20260506121551 | 80 | 54 | 2.0 | 7.0 | 0.00 | 0.03 | 0.01 | 42 | 1006.2 |
| 20260506121051 | 79 | 126 | 1.0 | 7.0 | 0.00 | 0.03 | 0.01 | 42 | 1006.3 |
| 20260506120550 | 78 | 189 | 2.0 | 8.0 | 0.00 | 0.03 | 0.01 | 45 | 1006.3 |
| 20260506120047 | 78 | 86 | 2.0 | 9.0 | 0.00 | 0.03 | 0.01 | 45 | 1007.3 |
| 20260506115534 | 78 | 62 | 2.0 | 9.0 | 0.00 | 0.03 | 0.01 | 45 | 1006.5 |
| 20260506115034 | 77 | 27 | 2.0 | 8.0 | 0.00 | 0.03 | 0.01 | 45 | 1006.7 |
| 20260506114532 | 77 | 64 | 2.0 | 8.0 | 0.00 | 0.03 | 0.01 | 46 | 1006.8 |
| 20260506114256 | 77 | 131 | 1.0 | 6.0 | 0.00 | 0.03 | 0.01 | 47 | 1006.9 |
| 20260506113531 | 76 | 108 | 0.0 | 4.0 | 0.00 | 0.03 | 0.01 | 49 | 1007.1 |
| 20260506113028 | 76 | 92 | 1.0 | 5.0 | 0.00 | 0.03 | 0.01 | 48 | 1007.1 |
| 20260506112756 | 75 | 143 | 2.0 | 6.0 | 0.00 | 0.03 | 0.01 | 48 | 1007.3 |
| 20260506112254 | 75 | 115 | 2.0 | 6.0 | 0.00 | 0.03 | 0.01 | 50 | 1007.4 |
| 20260506111515 | 75 | 35 | 2.0 | 6.0 | 0.00 | 0.03 | 0.01 | 50 | 1007.4 |
| 20260506111010 | 75 | 169 | 1.0 | 6.0 | 0.00 | 0.03 | 0.01 | 52 | 1007.5 |
| 20260506110523 | 74 | 201 | 1.0 | 4.0 | 0.00 | 0.03 | 0.01 | 51 | 1007.7 |
| 20260506105955 | 74 | 198 | 1.0 | 5.0 | 0.00 | 0.03 | 0.01 | 51 | 1007.7 |
| 20260506105454 | 74 | 37 | 1.0 | 5.0 | 0.00 | 0.03 | 0.01 | 50 | 1007.7 |
| 20260506105214 | 74 | 137 | 1.0 | 4.0 | 0.00 | 0.03 | 0.01 | 52 | 1007.8 |
| 20260506104711 | 73 | 209 | 1.0 | 5.0 | 0.00 | 0.03 | 0.01 | 52 | 1007.9 |
| 20260506103940 | 73 | 126 | 1.0 | 5.0 | 0.00 | 0.03 | 0.01 | 54 | 1008.0 |
| 20260506103437 | 73 | 16 | 2.0 | 8.0 | 0.00 | 0.03 | 0.01 | 54 | 1008.0 |
| 20260506102934 | 73 | 36 | 3.0 | 8.0 | 0.00 | 0.03 | 0.01 | 53 | 1008.0 |
| 20260506102427 | 74 | 8 | 1.0 | 5.0 | 0.00 | 0.03 | 0.01 | 50 | 1008.6 |
| 20260506102200 | 75 | 39 | 1.0 | 5.0 | 0.00 | 0.03 | 0.01 | 50 | 1008.2 |
| 20260506101417 | 75 | 126 | 1.0 | 5.0 | 0.00 | 0.03 | 0.01 | 51 | 1008.2 |
| 20260506100913 | 74 | 102 | 1.0 | 5.0 | 0.00 | 0.03 | 0.01 | 53 | 1008.3 |
| 20260506100413 | 73 | 110 | 1.0 | 3.0 | 0.00 | 0.03 | 0.01 | 55 | 1008.4 |
| 20260506095912 | 72 | 48 | 0.0 | 3.0 | 0.00 | 0.03 | 0.01 | 55 | 1008.4 |
| 20260506095407 | 73 | 81 | 0.0 | 3.0 | 0.00 | 0.03 | 0.01 | 55 | 1008.4 |
| 20260506094909 | 72 | 41 | 1.0 | 4.0 | 0.00 | 0.03 | 0.01 | 54 | 1008.5 |
| 20260506094407 | 72 | 91 | 1.0 | 4.0 | 0.00 | 0.03 | 0.01 | 57 | 1008.6 |
| 20260506093909 | 71 | 139 | 1.0 | 6.0 | 0.00 | 0.03 | 0.01 | 59 | 1008.5 |
| 20260506093409 | 71 | 181 | 1.0 | 6.0 | 0.00 | 0.03 | 0.01 | 61 | 1008.5 |
| 20260506093156 | 69 | 39 | 1.0 | 5.0 | 0.00 | 0.03 | 0.01 | 60 | 1008.4 |
| 20260506092406 | 69 | 87 | 1.0 | 5.0 | 0.00 | 0.03 | 0.01 | 62 | 1008.4 |
| 20260506091906 | 69 | 46 | 1.0 | 5.0 | 0.00 | 0.03 | 0.01 | 62 | 1008.5 |
| 20260506091406 | 69 | 83 | 1.0 | 3.0 | 0.00 | 0.03 | 0.01 | 62 | 1008.6 |
| 20260506090908 | 69 | 94 | 1.0 | 6.0 | 0.00 | 0.03 | 0.01 | 61 | 1008.6 |
| 20260506090407 | 69 | 70 | 2.0 | 6.0 | 0.00 | 0.03 | 0.01 | 62 | 1008.5 |
| 20260506085906 | 68 | 157 | 1.0 | 4.0 | 0.00 | 0.03 | 0.01 | 65 | 1008.6 |
| 20260506085405 | 68 | 58 | 2.0 | 6.0 | 0.00 | 0.03 | 0.01 | 65 | 1008.6 |
| 20260506084905 | 67 | 13 | 2.0 | 7.0 | 0.00 | 0.03 | 0.01 | 64 | 1008.7 |
| 20260506084408 | 68 | 62 | 1.0 | 7.0 | 0.00 | 0.03 | 0.01 | 65 | 1008.6 |
| 20260506083906 | 68 | 78 | 1.0 | 5.0 | 0.00 | 0.03 | 0.01 | 67 | 1008.7 |
| 20260506083359 | 68 | 359 | 0.0 | 4.0 | 0.00 | 0.03 | 0.01 | 66 | 1008.7 |
| 20260506082859 | 67 | 155 | 1.0 | 5.0 | 0.00 | 0.03 | 0.01 | 69 | 1008.9 |
| 20260506082353 | 65 | 83 | 1.0 | 5.0 | 0.00 | 0.03 | 0.01 | 71 | 1008.9 |
| 20260506081848 | 65 | 70 | 1.0 | 4.0 | 0.00 | 0.03 | 0.01 | 71 | 1008.8 |